EW8324 Weather Reports


Display with metric or nautical units.
time (UTC)temp
F
wind
direction
speed
MPH
gust
MPH
rain 1hr
in
rain 24hr
in
rain mn
in
humidity
%
barometer
mb
20260510013138 82 266 0.0 0.0 0.00 0.00 0.00 69 1004.9
20260510012643 83 266 0.0 0.0 0.00 0.00 0.00 67 1004.7
20260510012137 84 266 0.0 0.0 0.00 0.00 0.00 66 1004.8
20260510011641 84 217 0.0 0.0 0.00 0.00 0.00 66 1004.7
20260510011139 84 217 0.0 0.0 0.00 0.00 0.00 64 1004.7
20260510010641 85 251 0.0 0.0 0.00 0.00 0.00 61 1004.7
20260510010138 85 161 0.0 0.0 0.00 0.00 0.00 60 1004.3
20260510005639 85 161 0.0 0.0 0.00 0.00 0.00 60 1004.3
20260510005137 85 209 0.0 0.0 0.00 0.00 0.00 64 1004.3
20260510004640 85 209 0.0 0.0 0.00 0.00 0.00 65 1003.9
20260510004138 86 93 0.0 0.0 0.00 0.00 0.00 70 1004.1
20260510003638 86 93 0.0 0.0 0.00 0.00 0.00 69 1003.8
20260510003139 86 93 0.0 0.0 0.00 0.00 0.00 68 1003.7
20260510002639 86 93 0.0 0.0 0.00 0.00 0.00 67 1003.8
20260510002138 87 93 0.0 0.0 0.00 0.00 0.00 68 1003.8
20260510001639 87 93 0.0 0.0 0.00 0.00 0.00 67 1003.7
20260510001137 87 93 0.0 0.0 0.00 0.00 0.00 67 1003.7
20260510000638 87 93 0.0 0.0 0.00 0.00 0.00 66 1003.7
20260510000132 87 93 0.0 0.0 0.00 0.00 0.00 66 1003.6
20260509235638 87 92 0.0 0.0 0.00 0.00 0.00 65 1003.5
20260509235136 87 190 0.0 0.0 0.00 0.00 0.00 65 1003.5
20260509234639 87 190 0.0 0.0 0.00 0.00 0.00 66 1003.5
20260509234136 87 190 0.0 0.0 0.00 0.00 0.00 66 1003.3
20260509233637 87 190 0.0 0.0 0.00 0.00 0.00 65 1003.5
20260509233135 87 190 0.0 0.0 0.00 0.00 0.00 65 1003.5
20260509232636 88 190 0.0 0.0 0.00 0.00 0.00 64 1003.5
20260509232135 88 190 0.0 0.0 0.00 0.00 0.00 65 1003.4
20260509231637 88 190 0.0 0.0 0.00 0.00 0.00 64 1003.4
20260509231359 88 190 0.0 0.0 0.00 0.00 0.00 65 1003.6
20260509231244 88 190 0.0 0.0 0.00 0.00 0.00 65 1003.6
20260509230640 88 190 0.0 0.0 0.00 0.00 0.00 63 1003.5
20260509230135 88 190 0.0 0.0 0.00 0.00 0.00 63 1003.3
20260509225637 88 190 0.0 0.0 0.00 0.00 0.00 62 1003.2
20260509225359 89 190 0.0 0.0 0.00 0.00 0.00 61 1003.2
20260509225244 89 190 0.0 0.0 0.00 0.00 0.00 61 1003.2
20260509224637 89 190 0.0 0.0 0.00 0.00 0.00 61 1003.4
20260509224135 89 190 0.0 0.0 0.00 0.00 0.00 61 1003.3
20260509223639 89 189 0.0 0.0 0.00 0.00 0.00 64 1003.3
20260509223134 89 183 0.0 0.0 0.00 0.00 0.00 64 1003.2
20260509222636 89 183 0.0 0.0 0.00 0.00 0.00 63 1003.2
20260509222134 89 183 0.0 0.0 0.00 0.00 0.00 62 1003.2
20260509221639 89 183 0.0 0.0 0.00 0.00 0.00 63 1003.1
20260509221135 89 183 0.0 0.0 0.00 0.00 0.00 63 1003.1
20260509220650 89 207 0.0 0.0 0.00 0.00 0.00 62 1003.2
20260509220134 89 207 0.0 0.0 0.00 0.00 0.00 64 1003.2
20260509215637 89 207 0.0 0.0 0.00 0.00 0.00 65 1003.1
20260509215135 89 144 0.0 0.0 0.00 0.00 0.00 68 1003.1
20260509214636 88 144 0.0 0.0 0.00 0.00 0.00 64 1003.2
20260509214133 88 144 0.0 0.0 0.00 0.00 0.00 63 1003.2
20260509213636 88 142 0.0 0.0 0.00 0.00 0.00 64 1003.2
20260509213359 87 141 0.0 0.0 0.00 0.00 0.00 66 1003.2
20260509213241 87 141 0.0 0.0 0.00 0.00 0.00 66 1003.2
20260509212634 87 145 0.0 0.0 0.00 0.00 0.00 67 1003.1
20260509212146 87 145 0.0 0.0 0.00 0.00 0.00 68 1003.2
20260509211633 87 145 0.0 0.0 0.00 0.00 0.00 67 1003.3
20260509211611 87 145 0.0 0.0 0.00 0.00 0.00 65 1003.2
20260509211241 87 145 0.0 0.0 0.00 0.00 0.00 65 1003.2
20260509210635 87 118 0.0 0.0 0.00 0.00 0.00 65 1003.3
20260509210349 87 117 0.0 0.0 0.00 0.00 0.00 66 1003.4
20260509210241 87 117 0.0 0.0 0.00 0.00 0.00 66 1003.4
20260509205634 88 350 0.0 0.0 0.00 0.00 0.00 67 1003.5
20260509205146 88 350 0.0 0.0 0.00 0.00 0.00 68 1003.6
20260509204633 88 0 0.0 0.0 0.00 0.00 0.00 68 1003.7
20260509204132 88 0 0.0 0.0 0.00 0.00 0.00 66 1003.8
20260509203635 89 0 0.0 0.0 0.00 0.00 0.00 64 1003.8
20260509203134 89 0 0.0 0.0 0.00 0.00 0.00 65 1003.9
20260509202633 89 255 0.0 0.0 0.00 0.00 0.00 65 1003.9
20260509202131 89 257 0.0 0.0 0.00 0.00 0.00 65 1003.9
20260509201635 89 157 0.0 0.0 0.00 0.00 0.00 63 1004.0
20260509201132 89 16 0.0 0.0 0.00 0.00 0.00 63 1004.2
20260509200634 89 268 0.0 0.0 0.00 0.00 0.00 68 1004.1
20260509200130 88 268 0.0 0.0 0.00 0.00 0.00 66 1004.2
20260509195634 88 231 0.0 0.0 0.00 0.00 0.00 65 1004.3
20260509195131 89 233 0.0 0.0 0.00 0.00 0.00 66 1004.3
20260509194629 89 240 0.0 0.0 0.00 0.00 0.00 67 1004.3
20260509194127 88 231 0.0 0.0 0.00 0.00 0.00 66 1004.4
20260509193854 88 230 0.0 0.0 0.00 0.00 0.00 68 1004.5
20260509193738 88 230 0.0 0.0 0.00 0.00 0.00 68 1004.5
20260509193132 88 234 0.0 0.0 0.00 0.00 0.00 67 1004.6
20260509192638 89 234 0.0 0.0 0.00 0.00 0.00 64 1004.6
20260509192129 89 234 0.0 0.0 0.00 0.00 0.00 64 1004.7
20260509191632 89 217 0.0 0.0 0.00 0.00 0.00 66 1004.8
20260509191130 89 214 0.0 0.0 0.00 0.00 0.00 66 1004.8
20260509190635 89 283 0.0 0.0 0.00 0.00 0.00 65 1004.7
20260509190143 89 302 0.0 0.0 0.00 0.00 0.00 68 1004.7
20260509185626 89 302 0.0 0.0 0.00 0.00 0.00 67 1004.9
20260509185126 88 302 0.0 0.0 0.00 0.00 0.00 68 1004.9
20260509184632 88 300 0.0 0.0 0.00 0.00 0.00 69 1005.0
20260509184132 88 305 0.0 0.0 0.00 0.00 0.00 69 1005.2
20260509183630 87 303 0.0 0.0 0.00 0.00 0.00 71 1005.2
20260509183349 87 303 0.0 0.0 0.00 0.00 0.00 72 1005.2
20260509183236 87 303 0.0 0.0 0.00 0.00 0.00 72 1005.2
20260509182626 86 333 0.0 0.0 0.00 0.00 0.00 71 1005.3
20260509182135 86 337 0.0 0.0 0.00 0.00 0.00 72 1005.3
20260509182124 86 338 0.0 0.0 0.00 0.00 0.00 72 1005.3
20260509181643 86 338 0.0 0.0 0.00 0.00 0.00 73 1005.4
20260509181628 86 338 0.0 0.0 0.00 0.00 0.00 73 1005.5
20260509181124 85 233 0.0 0.0 0.00 0.00 0.00 74 1005.5
20260509180641 85 233 0.0 0.0 0.00 0.00 0.00 73 1005.5
20260509180627 85 233 0.0 0.0 0.00 0.00 0.00 73 1005.6
20260509180129 85 226 0.0 0.0 0.00 0.00 0.00 74 1005.6
20260509175859 85 216 0.0 0.0 0.00 0.00 0.00 74 1005.7
20260509175738 85 216 0.0 0.0 0.00 0.00 0.00 74 1005.7
20260509175129 85 255 0.0 0.0 0.00 0.00 0.00 75 1005.9
20260509174630 85 140 0.0 0.0 0.00 0.00 0.00 77 1006.0
20260509174134 85 138 0.0 0.0 0.00 0.00 0.00 76 1005.9
20260509173852 85 219 0.0 0.0 0.00 0.00 0.00 78 1006.0
20260509173740 85 219 0.0 0.0 0.00 0.00 0.00 78 1006.0
20260509173129 0 0.0 0.0 0.00 0.00 0.00 1005.9
20260509172850 84 180 0.0 0.0 0.00 0.00 0.00 76 1005.8
20260509172738 84 180 0.0 0.0 0.00 0.00 0.00 76 1005.8
20260509172127 84 161 0.0 0.0 0.00 0.00 0.00 77 1005.7
20260509171628 84 179 0.0 0.0 0.00 0.00 0.00 77 1005.7
20260509171129 84 175 0.0 0.0 0.00 0.00 0.00 78 1005.7
20260509170629 83 196 0.0 0.0 0.00 0.00 0.00 80 1005.7
20260509170127 83 172 0.0 3.0 0.00 0.00 0.00 81 1005.8
20260509165627 82 172 1.0 3.0 0.00 0.00 0.00 83 1005.8
20260509165127 81 182 0.0 0.0 0.00 0.00 0.00 83 1005.8
20260509164627 81 182 0.0 0.0 0.00 0.00 0.00 83 1005.8
20260509164127 81 182 0.0 0.0 0.00 0.00 0.00 83 1005.9
20260509163628 80 182 0.0 0.0 0.00 0.00 0.00 83 1006.0
20260509163353 80 182 0.0 1.0 0.00 0.00 0.00 84 1005.8
20260509163233 80 182 0.0 1.0 0.00 0.00 0.00 84 1005.8
20260509162626 80 203 0.0 1.0 0.00 0.00 0.00 83 1005.9
20260509162126 80 221 0.0 0.0 0.00 0.00 0.00 84 1005.9
20260509161626 80 164 0.0 0.0 0.00 0.00 0.00 84 1006.1
20260509161125 79 159 0.0 0.0 0.00 0.00 0.00 83 1006.1
20260509160627 79 159 0.0 0.0 0.00 0.00 0.00 83 1006.0
20260509160126 79 159 0.0 0.0 0.00 0.00 0.00 82 1006.1
20260509155627 79 176 0.0 0.0 0.00 0.00 0.00 81 1006.2
20260509155126 78 176 0.0 0.0 0.00 0.00 0.00 80 1006.3
20260509154625 78 175 0.0 0.0 0.00 0.00 0.00 78 1006.3
20260509154126 78 175 0.0 0.0 0.00 0.00 0.00 79 1006.4
20260509153626 78 175 0.0 0.0 0.00 0.00 0.00 77 1006.3
20260509153123 78 175 0.0 0.0 0.00 0.00 0.00 75 1006.4
20260509152849 78 175 0.0 0.0 0.00 0.00 0.00 72 1006.5
20260509152735 78 175 0.0 0.0 0.00 0.00 0.00 72 1006.5
20260509152125 77 175 0.0 0.0 0.00 0.00 0.00 69 1006.4
20260509151626 77 176 0.0 0.0 0.00 0.00 0.00 66 1006.3
20260509151123 77 176 0.0 0.0 0.00 0.00 0.00 65 1006.3
20260509150625 77 175 0.0 0.0 0.00 0.00 0.00 61 1006.3
20260509150123 77 175 0.0 0.0 0.00 0.00 0.00 60 1006.3
20260509145846 76 175 0.0 0.0 0.00 0.00 0.00 58 1006.1
20260509145734 76 175 0.0 0.0 0.00 0.00 0.00 58 1006.1
20260509145123 76 175 0.0 0.0 0.00 0.00 0.00 54 1006.0
20260509144625 76 175 0.0 0.0 0.00 0.00 0.00 53 1005.9
20260509144124 76 175 0.0 0.0 0.00 0.00 0.00 52 1006.0
20260509143626 76 175 0.0 0.0 0.00 0.00 0.00 52 1006.0
20260509143124 76 175 0.0 0.0 0.00 0.00 0.00 52 1005.8
20260509142624 76 175 0.0 0.0 0.00 0.00 0.00 52 1005.8
20260509142122 76 175 0.0 0.0 0.00 0.00 0.00 52 1005.7
20260509141623 76 175 0.0 0.0 0.00 0.00 0.00 51 1005.7
20260509141122 76 175 0.0 0.0 0.00 0.00 0.00 51 1005.6
20260509140845 76 175 0.0 0.0 0.00 0.00 0.00 51 1005.6
20260509140732 76 175 0.0 0.0 0.00 0.00 0.00 51 1005.6
20260509140121 76 175 0.0 0.0 0.00 0.00 0.00 51 1005.6
20260509135626 75 175 0.0 0.0 0.00 0.00 0.00 51 1005.6
20260509135351 75 175 0.0 0.0 0.00 0.00 0.00 51 1005.7
20260509135231 75 175 0.0 0.0 0.00 0.00 0.00 51 1005.7
20260509134624 75 175 0.0 0.0 0.00 0.00 0.00 51 1005.7
20260509134121 75 175 0.0 0.0 0.00 0.00 0.00 51 1005.8
20260509133623 75 175 0.0 0.0 0.00 0.00 0.00 51 1005.9
20260509133122 75 175 0.0 0.0 0.00 0.00 0.00 52 1006.2
20260509132856 75 175 0.0 0.0 0.00 0.00 0.00 52 1006.1
20260509132745 75 175 0.0 0.0 0.00 0.00 0.00 52 1006.1
20260509132121 75 175 0.0 0.0 0.00 0.00 0.00 52 1006.1
20260509131624 75 175 0.0 0.0 0.00 0.00 0.00 52 1006.1
20260509131122 74 175 0.0 0.0 0.00 0.00 0.00 53 1006.1
20260509130624 74 175 0.0 0.0 0.00 0.00 0.00 53 1006.1
20260509130135 74 175 0.0 0.0 0.00 0.00 0.00 53 1006.3
20260509125623 74 175 0.0 0.0 0.00 0.00 0.00 53 1006.3
20260509125120 74 175 0.0 0.0 0.00 0.00 0.00 54 1006.5
20260509124623 74 175 0.0 0.0 0.00 0.00 0.00 54 1006.4
20260509124121 74 175 0.0 0.0 0.00 0.00 0.00 55 1006.4
20260509123844 74 175 0.0 0.0 0.00 0.00 0.00 55 1006.3
20260509123730 74 175 0.0 0.0 0.00 0.00 0.00 55 1006.3
20260509123121 74 175 0.0 0.0 0.00 0.00 0.00 55 1006.2
20260509122626 73 175 0.0 0.0 0.00 0.00 0.00 56 1006.2
20260509122340 73 175 0.0 0.0 0.00 0.00 0.00 56 1006.1
20260509122227 73 175 0.0 0.0 0.00 0.00 0.00 56 1006.1
20260509121623 73 175 0.0 0.0 0.00 0.00 0.00 56 1006.0
20260509121119 73 175 0.0 0.0 0.00 0.00 0.00 56 1005.8
20260509120625 73 175 0.0 0.0 0.00 0.00 0.00 56 1005.7
20260509120120 73 175 0.0 0.0 0.00 0.00 0.00 56 1005.4
20260509115839 73 175 0.0 0.0 0.00 0.00 0.00 56 1005.1
20260509115732 73 175 0.0 0.0 0.00 0.00 0.00 56 1005.1
20260509115120 73 175 0.0 0.0 0.00 0.00 0.00 56 1005.2
20260509114620 73 175 0.0 0.0 0.00 0.00 0.00 56 1005.4
20260509114119 73 175 0.0 0.0 0.00 0.00 0.00 57 1005.4
20260509113621 73 175 0.0 0.0 0.00 0.00 0.00 57 1005.5
20260509113120 73 175 0.0 0.0 0.00 0.00 0.00 57 1005.6
20260509113058 73 175 0.0 0.0 0.00 0.00 0.00 57 1005.7
20260509112724 73 175 0.0 0.0 0.00 0.00 0.00 57 1005.7
20260509112226 73 175 0.0 0.0 0.00 0.00 0.00 57 1005.7
20260509111838 73 175 0.0 0.0 0.00 0.00 0.00 57 1005.8
20260509111720 73 175 0.0 0.0 0.00 0.00 0.00 57 1005.8
20260509111224 73 175 0.0 0.0 0.00 0.00 0.00 57 1005.8
20260509110623 73 175 0.0 0.0 0.00 0.00 0.00 58 1006.0
20260509110118 73 175 0.0 0.0 0.00 0.00 0.00 58 1006.1
20260509105118 73 175 0.0 0.0 0.00 0.00 0.00 60 1005.9
20260509104624 73 175 0.0 0.0 0.00 0.00 0.00 60 1005.7
20260509104120 73 175 0.0 0.0 0.00 0.00 0.00 60 1005.8
20260509103615 73 175 0.0 0.0 0.00 0.00 0.00 60 1005.7
20260509103117 73 175 0.0 0.0 0.00 0.00 0.00 60 1005.7
20260509102622 73 175 0.0 0.0 0.00 0.00 0.00 60 1005.7
20260509102117 73 175 0.0 0.0 0.00 0.00 0.00 60 1005.4
20260509101621 73 175 0.0 0.0 0.00 0.00 0.00 60 1005.1
20260509101117 74 175 0.0 0.0 0.00 0.00 0.00 60 1004.9
20260509100620 74 175 0.0 0.0 0.00 0.00 0.00 60 1004.9
20260509100118 74 175 0.0 0.0 0.00 0.00 0.00 59 1004.7
20260509095621 74 175 0.0 0.0 0.00 0.00 0.00 59 1004.6
20260509095117 74 175 0.0 0.0 0.00 0.00 0.00 59 1004.6
20260509094620 74 175 0.0 0.0 0.00 0.00 0.00 59 1004.6
20260509094117 74 175 0.0 0.0 0.00 0.00 0.00 59 1004.8
20260509093849 74 175 0.0 0.0 0.00 0.00 0.00 59 1005.0
20260509093729 74 175 0.0 0.0 0.00 0.00 0.00 59 1005.0
20260509093117 74 175 0.0 0.0 0.00 0.00 0.00 59 1005.1
20260509092624 74 175 0.0 0.0 0.00 0.00 0.00 59 1005.3
20260509092116 74 175 0.0 0.0 0.00 0.00 0.00 59 1005.3
20260509091617 74 175 0.0 0.0 0.00 0.00 0.00 59 1005.5
20260509091337 74 175 0.0 0.0 0.00 0.00 0.00 59 1005.4
20260509091223 74 175 0.0 0.0 0.00 0.00 0.00 59 1005.4
20260509090633 74 175 0.0 0.0 0.00 0.00 0.00 59 1005.4
20260509090338 74 175 0.0 0.0 0.00 0.00 0.00 59 1005.5
20260509090223 74 175 0.0 0.0 0.00 0.00 0.00 59 1005.5
20260509085836 74 175 0.0 0.0 0.00 0.00 0.00 59 1005.4
20260509085724 74 175 0.0 0.0 0.00 0.00 0.00 59 1005.4
20260509085341 74 175 0.0 0.0 0.00 0.00 0.00 59 1005.5
20260509085222 74 175 0.0 0.0 0.00 0.00 0.00 59 1005.5
20260509084616 74 175 0.0 0.0 0.00 0.00 0.00 59 1005.5
20260509084559 74 175 0.0 0.0 0.00 0.00 0.00 59 1005.3
20260509084222 74 175 0.0 0.0 0.00 0.00 0.00 59 1005.3
20260509083842 74 175 0.0 0.0 0.00 0.00 0.00 59 1005.2
20260509083724 74 175 0.0 0.0 0.00 0.00 0.00 59 1005.2
20260509083116 74 175 0.0 0.0 0.00 0.00 0.00 59 1005.2
20260509082616 74 175 0.0 0.0 0.00 0.00 0.00 59 1005.2
20260509082333 74 175 0.0 0.0 0.00 0.00 0.00 59 1005.2
20260509082217 74 175 0.0 0.0 0.00 0.00 0.00 59 1005.2
20260509081616 74 175 0.0 0.0 0.00 0.00 0.00 59 1005.1
20260509081341 74 175 0.0 0.0 0.00 0.00 0.00 60 1005.1
20260509081223 74 175 0.0 0.0 0.00 0.00 0.00 60 1005.1
20260509080614 74 175 0.0 0.0 0.00 0.00 0.00 60 1005.1
20260509080557 74 175 0.0 0.0 0.00 0.00 0.00 60 1005.1
20260509080226 74 175 0.0 0.0 0.00 0.00 0.00 60 1005.1
20260509075615 74 175 0.0 0.0 0.00 0.00 0.00 61 1005.1
20260509075114 74 175 0.0 0.0 0.00 0.00 0.00 61 1005.3
20260509074843 74 175 0.0 0.0 0.00 0.00 0.00 61 1005.2
20260509074724 74 175 0.0 0.0 0.00 0.00 0.00 61 1005.2
20260509074113 74 175 0.0 0.0 0.00 0.00 0.00 61 1005.2
20260509073615 74 175 0.0 0.0 0.00 0.00 0.00 61 1005.3
20260509073116 74 175 0.0 0.0 0.00 0.00 0.00 61 1005.4
20260509072836 74 175 0.0 0.0 0.00 0.00 0.00 61 1005.5
20260509072722 74 175 0.0 0.0 0.00 0.00 0.00 61 1005.5
20260509072337 74 175 0.0 0.0 0.00 0.00 0.00 61 1005.4
20260509072221 74 175 0.0 0.0 0.00 0.00 0.00 61 1005.4
20260509071617 74 175 0.0 0.0 0.00 0.00 0.00 61 1005.5
20260509071114 74 175 0.0 0.0 0.00 0.00 0.00 61 1005.5
20260509070615 74 175 0.0 0.0 0.00 0.00 0.00 61 1005.6
20260509070113 74 175 0.0 0.0 0.00 0.00 0.00 61 1005.4
20260509065617 74 175 0.0 0.0 0.00 0.00 0.00 61 1005.5
20260509065113 74 175 0.0 0.0 0.00 0.00 0.00 62 1005.7
20260509064613 74 175 0.0 0.0 0.00 0.00 0.00 61 1005.6
20260509064111 74 175 0.0 0.0 0.00 0.00 0.00 62 1005.5
20260509063615 74 175 0.0 0.0 0.00 0.00 0.00 62 1005.6
20260509063112 74 175 0.0 0.0 0.00 0.00 0.00 62 1005.6
20260509062613 74 175 0.0 0.0 0.00 0.00 0.00 62 1005.7
20260509062111 74 175 0.0 0.0 0.00 0.00 0.00 62 1005.8
20260509061837 74 175 0.0 0.0 0.00 0.00 0.00 62 1005.9
20260509061719 74 175 0.0 0.0 0.00 0.00 0.00 62 1005.9
20260509061112 74 175 0.0 0.0 0.00 0.00 0.00 62 1005.8
20260509060613 74 175 0.0 0.0 0.00 0.00 0.00 62 1005.8
20260509060334 74 175 0.0 0.0 0.00 0.00 0.00 62 1005.8
20260509060221 74 175 0.0 0.0 0.00 0.00 0.00 62 1005.8
20260509055614 74 175 0.0 0.0 0.00 0.00 0.00 62 1005.9
20260509055111 74 175 0.0 0.0 0.00 0.00 0.00 63 1005.9
20260509054612 74 175 0.0 0.0 0.00 0.00 0.00 62 1005.9
20260509054110 74 175 0.0 0.0 0.00 0.00 0.00 63 1006.0
20260509053612 74 175 0.0 0.0 0.00 0.00 0.00 63 1006.0
20260509053111 74 175 0.0 0.0 0.00 0.00 0.00 63 1006.0
20260509052613 74 175 0.0 0.0 0.00 0.00 0.00 63 1006.0
20260509052112 73 175 0.0 0.0 0.00 0.00 0.00 64 1006.0
20260509051836 73 175 0.0 0.0 0.00 0.00 0.00 64 1005.9
20260509051719 73 175 0.0 0.0 0.00 0.00 0.00 64 1005.9
20260509051110 73 175 0.0 0.0 0.00 0.00 0.00 64 1006.0
20260509050612 73 175 0.0 0.0 0.00 0.00 0.00 64 1006.0
20260509050111 73 175 0.0 0.0 0.00 0.00 0.00 64 1006.1
20260509045613 73 175 0.0 0.0 0.00 0.00 0.00 65 1006.0
20260509045111 73 175 0.0 0.0 0.00 0.00 0.00 65 1006.1
20260509044611 73 173 0.0 0.0 0.00 0.00 0.00 65 1006.2
20260509044110 73 173 0.0 0.0 0.00 0.00 0.00 65 1006.3
20260509043611 73 148 0.0 0.0 0.00 0.00 0.00 66 1006.1
20260509043109 73 147 0.0 1.0 0.00 0.00 0.00 66 1006.2
20260509042611 73 147 0.0 1.0 0.00 0.00 0.00 67 1006.1
20260509042109 73 147 0.0 0.0 0.00 0.00 0.00 67 1006.0
20260509041610 73 147 0.0 0.0 0.00 0.00 0.00 67 1006.0
20260509041329 73 148 0.0 0.0 0.00 0.00 0.00 67 1005.9
20260509041218 73 148 0.0 0.0 0.00 0.00 0.00 67 1005.9
20260509040610 73 147 0.0 0.0 0.00 0.00 0.00 67 1005.9
20260509040109 73 147 0.0 0.0 0.00 0.00 0.00 67 1005.9
20260509035610 73 147 0.0 0.0 0.00 0.00 0.00 68 1005.9
20260509035109 73 147 0.0 1.0 0.00 0.00 0.00 68 1005.9
20260509034611 73 147 0.0 1.0 0.00 0.00 0.00 68 1005.7
20260509034109 73 147 0.0 0.0 0.00 0.00 0.00 68 1005.6
20260509033609 73 147 0.0 0.0 0.00 0.00 0.00 68 1005.7
20260509033108 73 147 0.0 0.0 0.00 0.00 0.00 68 1005.8
20260509032609 73 147 0.0 0.0 0.00 0.00 0.00 69 1005.7
20260509032107 73 147 0.0 0.0 0.00 0.00 0.00 69 1005.7
20260509031611 73 147 0.0 0.0 0.00 0.00 0.00 69 1005.6
20260509031108 73 147 0.0 0.0 0.00 0.00 0.00 69 1005.6
20260509030831 73 147 0.0 0.0 0.00 0.00 0.00 70 1005.7
20260509030719 73 147 0.0 0.0 0.00 0.00 0.00 70 1005.7
20260509030107 73 147 0.0 0.0 0.00 0.00 0.00 70 1005.6
20260509025608 73 138 0.0 0.0 0.00 0.00 0.00 70 1005.4
20260509025108 73 161 0.0 0.0 0.00 0.00 0.00 71 1005.5
20260509024607 73 161 0.0 0.0 0.00 0.00 0.00 71 1005.5
20260509024330 73 164 0.0 0.0 0.00 0.00 0.00 71 1005.4
20260509024215 73 164 0.0 0.0 0.00 0.00 0.00 71 1005.4
20260509023609 73 164 0.0 0.0 0.00 0.00 0.00 72 1005.6
20260509023107 73 164 0.0 0.0 0.00 0.00 0.00 72 1005.4
20260509022610 73 162 0.0 0.0 0.00 0.00 0.00 73 1005.3
20260509022107 73 214 0.0 0.0 0.00 0.00 0.00 73 1005.2
20260509021833 73 217 0.0 0.0 0.00 0.00 0.00 74 1004.9
20260509021715 73 217 0.0 0.0 0.00 0.00 0.00 74 1004.9
20260509021106 73 217 0.0 0.0 0.00 0.00 0.00 74 1005.1
20260509020611 73 172 0.0 0.0 0.00 0.00 0.00 75 1005.2
20260509020106 73 172 0.0 0.0 0.00 0.00 0.00 75 1005.3
20260509015607 73 172 0.0 0.0 0.00 0.00 0.00 76 1005.2
20260509015552 73 172 0.0 0.0 0.00 0.00 0.00 76 1005.2
20260509015214 73 172 0.0 0.0 0.00 0.00 0.00 76 1005.2
20260509014606 73 133 0.0 0.0 0.00 0.00 0.00 76 1005.1
20260509014105 73 133 0.0 0.0 0.00 0.00 0.00 77 1005.2
20260509013607 73 133 0.0 0.0 0.00 0.00 0.00 77 1005.1